Wind_Speed
52 52 51 50 49 50 51 49 48 44 43 40 40 40 40 38 36 35 35 34 33 33 33 33 34 34 34 34 34 34 35 35 35 36 36 37 37 37 38 38 39 39 40 41
51 51 53 53 50 48 48 48 47 45 43 39 40 41 41 39 36 34 34 34 33 33 33 32 33 33 33 33 33 34 34 34 35 36 36 36 37 37 38 38 39 41 42 43
54 52 53 55 50 48 47 46 46 45 39 38 40 41 40 39 37 35 34 34 33 33 32 32 32 32 32 32 33 33 33 34 34 35 35 36 36 37 38 39 40 41 42 43
54 54 56 53 48 47 47 45 43 42 40 40 39 39 39 39 38 36 34 33 33 33 33 32 32 32 32 33 33 33 33 34 34 34 35 36 36 37 38 39 40 42 43 44
54 55 55 51 48 46 45 44 41 41 40 40 39 40 39 37 37 36 35 33 33 33 33 32 32 33 33 33 33 33 33 33 34 34 35 36 36 38 39 40 41 42 44 45
53 53 53 49 45 44 44 44 39 39 39 39 40 41 35 34 35 34 34 33 33 32 32 32 32 33 33 33 33 33 33 34 34 35 36 37 38 39 39 41 42 43 44 45
52 52 50 45 45 44 44 40 36 38 38 40 40 38 35 35 34 33 33 33 33 32 31 31 32 32 32 32 33 33 33 34 34 35 36 37 38 39 40 41 42 43 44 46
51 52 48 42 44 44 41 38 37 37 37 38 38 37 37 36 34 33 33 32 32 31 31 31 31 32 32 32 32 33 34 34 35 35 37 38 39 39 40 41 42 43 45 46
46 45 43 43 44 42 40 39 38 37 36 36 36 36 36 35 34 33 32 31 31 30 30 31 31 31 32 32 33 33 34 34 35 36 37 38 38 39 40 41 43 44 45 46
45 44 43 42 43 40 39 38 37 36 35 35 34 34 34 34 33 32 31 30 30 30 30 31 31 32 32 32 33 33 34 35 35 36 37 37 38 40 41 42 43 44 45 47
44 42 43 43 41 39 38 38 36 35 33 33 34 34 33 32 32 32 32 31 31 31 31 31 32 32 32 33 33 34 35 35 36 36 37 38 39 40 41 42 44 45 46 48
43 41 42 42 41 40 40 39 37 35 34 33 33 34 34 33 32 32 32 31 31 31 31 31 32 32 33 33 34 34 35 36 36 37 38 39 40 41 42 43 44 46 47 49
42 41 42 42 42 41 41 39 38 37 35 33 33 33 33 33 32 31 31 31 32 31 31 31 31 32 33 34 34 35 35 36 37 38 39 40 40 41 42 44 45 47 49 51
41 42 42 41 39 39 39 39 38 37 35 33 33 33 33 33 32 31 31 31 31 31 31 31 32 33 33 34 34 35 36 37 38 39 39 40 41 42 44 45 47 48 50 52
39 40 39 39 39 38 38 38 37 36 35 34 34 34 34 34 33 32 31 31 31 31 31 31 32 33 34 34 35 36 37 37 38 39 40 41 42 43 45 46 48 50 51 53
37 37 38 38 38 38 38 37 37 36 35 35 35 34 34 34 34 33 32 32 32 32 32 32 33 34 34 35 36 37 37 38 39 39 40 41 43 44 46 48 50 51 53 54
36 37 37 37 36 35 36 36 36 36 35 35 34 34 35 34 33 33 33 32 32 32 33 33 34 34 35 36 36 37 38 38 39 40 42 43 44 46 48 49 51 52 54 55
34 35 35 35 34 33 33 34 35 35 34 34 34 35 34 34 33 32 32 32 32 32 33 33 34 34 35 36 37 37 38 39 41 42 43 44 46 47 49 50 52 53 55 56
32 33 34 34 33 32 31 31 32 32 33 33 33 33 32 31 31 31 32 32 32 32 32 33 34 35 35 36 37 38 39 40 42 43 44 45 46 48 50 52 54 55 56 57
31 31 31 32 31 30 30 30 31 31 32 31 31 31 30 30 30 30 31 31 31 32 33 33 34 35 36 37 38 39 40 41 42 43 45 46 48 50 52 54 55 57 57 58
31 30 30 30 30 30 29 29 29 30 30 30 30 30 30 30 31 31 31 31 32 32 33 34 35 36 37 38 39 40 41 42 44 45 47 48 50 52 54 55 57 57 58 58
30 30 30 30 29 28 28 28 28 28 29 30 30 30 30 31 31 31 31 31 32 33 33 34 35 36 37 39 40 41 42 43 45 46 48 50 52 53 55 56 57 57 57 57
27 27 28 28 27 27 27 27 27 28 28 29 29 29 30 30 30 30 31 32 32 33 34 35 36 37 38 39 40 41 43 44 46 48 50 51 54 56 57 57 57 57 57 57
25 25 26 26 26 26 27 27 27 27 27 27 28 29 29 29 30 31 31 32 33 34 35 36 37 38 39 40 41 43 45 46 48 50 52 54 56 57 57 57 57 57 57 56
24 25 25 26 26 26 26 27 27 27 27 28 28 28 29 29 30 31 31 32 33 34 35 36 37 39 40 42 43 45 46 49 51 53 55 57 57 57 56 56 56 56 56 55
23 24 25 26 26 26 26 26 26 26 27 27 27 28 29 30 30 31 31 32 33 34 35 37 38 40 41 43 45 47 49 51 53 55 56 56 56 55 55 55 56 56 55 53
23 23 24 24 25 25 25 25 26 26 26 27 28 28 29 29 30 30 31 32 33 35 36 38 39 41 43 45 47 49 51 53 54 55 55 54 54 54 54 55 55 53 51 50
Wind_Direction
229 232 235 236 236 237 240 243 246 248 248 249 254 257 258 258 259 259 259 259 259 259 259 260 260 260 260 261 262 263 263 264 264 265 266 268 269 271 274 276 278 281 283 285
225 228 233 236 235 236 239 241 243 244 244 245 248 253 256 257 259 259 259 259 259 259 260 260 260 260 261 262 262 263 264 265 265 266 267 269 270 272 275 277 278 281 284 287
225 227 230 232 234 237 239 241 243 245 245 245 248 251 255 257 259 259 258 258 259 259 259 260 260 260 261 262 263 264 265 266 267 267 268 270 272 274 275 278 281 284 286 287
226 228 233 234 235 238 241 242 244 245 244 244 247 250 253 255 256 258 257 257 257 257 258 259 260 260 261 262 263 264 266 266 267 269 270 272 274 276 278 280 283 285 286 288
226 229 233 233 234 237 240 241 242 243 242 243 246 248 250 253 256 256 257 257 256 256 256 257 258 259 260 262 263 265 266 267 269 270 272 273 275 277 279 281 283 285 287 289
227 230 232 233 234 237 240 240 239 243 242 242 245 248 250 253 255 255 255 255 255 254 254 256 257 259 261 262 263 264 266 267 269 271 273 275 277 279 281 283 284 286 288 290
228 231 232 231 232 235 239 240 242 243 241 242 244 248 248 250 252 253 253 253 253 253 254 256 258 259 260 261 263 265 266 268 270 273 275 276 278 280 282 283 285 287 289 290
228 232 230 230 232 235 239 240 242 241 241 241 243 245 246 248 250 252 252 251 252 252 254 256 257 259 260 261 263 265 267 270 272 274 276 278 279 281 282 284 286 288 289 291
230 233 232 231 233 235 236 237 239 240 239 241 242 243 245 248 249 250 250 250 251 252 253 255 257 259 261 262 265 267 269 271 273 276 278 279 281 282 284 285 287 289 290 292
227 227 229 230 230 233 235 236 237 238 239 239 240 242 243 244 246 247 248 249 250 252 254 256 258 260 262 264 265 267 270 272 275 277 279 280 282 284 285 287 288 290 291 292
224 224 226 227 228 230 232 234 235 236 238 239 240 240 241 243 245 246 248 250 252 254 256 257 259 261 263 265 266 269 271 274 276 278 280 282 283 285 286 288 290 291 292 293
223 223 226 226 228 230 231 232 234 236 238 239 240 240 241 243 245 246 248 250 252 254 256 258 260 261 263 265 268 270 273 275 277 279 281 283 284 286 287 289 291 292 294 295
222 223 225 225 227 229 230 231 233 235 236 238 238 238 240 242 243 245 247 250 253 254 256 258 260 262 264 266 269 271 274 276 278 280 282 283 285 287 288 290 292 294 295 296
222 223 224 225 227 228 229 230 231 231 234 236 236 237 239 241 242 245 248 252 254 255 256 258 260 263 265 268 270 272 275 277 279 281 283 285 286 288 290 292 294 295 296 298
221 224 225 225 227 230 230 230 229 231 234 235 236 238 240 241 242 245 249 251 254 256 258 260 263 265 267 269 271 274 276 278 280 282 284 286 288 290 292 294 295 297 299 300
220 223 224 225 226 228 229 230 230 230 233 235 237 238 240 241 244 247 250 252 255 258 261 263 266 267 269 271 273 275 278 280 282 284 286 287 289 291 293 295 297 299 300 301
219 221 223 224 225 226 227 229 229 231 232 234 236 238 240 242 245 248 251 254 256 259 262 265 267 270 271 273 275 278 280 282 284 285 287 289 291 293 295 297 299 300 301 302
221 221 223 225 225 226 227 227 228 230 232 234 237 239 241 243 246 249 252 255 257 260 263 266 269 271 273 275 278 280 282 284 286 287 289 291 293 295 297 299 300 301 302 303
222 222 223 223 224 226 227 228 229 231 233 235 238 240 241 243 246 250 253 256 258 261 264 267 270 272 275 277 279 282 284 286 288 289 291 293 295 297 298 300 301 302 303 303
221 222 222 222 224 227 228 230 233 235 236 236 238 241 244 246 248 252 255 257 260 263 266 269 271 274 277 279 282 284 286 288 289 291 293 294 296 298 299 301 302 303 303 304
220 220 222 225 227 228 230 232 233 234 235 236 239 243 246 249 250 252 256 259 262 265 268 270 273 276 279 282 284 286 287 289 291 292 294 296 297 299 300 301 303 303 304 304
220 221 222 224 226 227 229 231 232 233 235 239 242 245 248 250 252 254 257 260 263 266 269 272 275 278 281 283 285 287 289 291 293 294 296 297 298 300 301 302 303 304 304 305
217 220 222 223 224 226 229 231 233 234 237 240 244 247 250 251 253 255 259 262 265 269 272 275 278 280 282 285 287 289 291 293 295 297 298 299 300 301 302 303 303 304 305 305
218 220 222 224 225 226 228 231 234 236 239 242 244 247 249 252 256 259 262 264 267 270 274 277 279 282 284 287 289 291 293 295 297 298 299 300 301 302 302 303 303 304 304 304
218 220 222 224 225 227 228 230 233 236 240 243 246 248 251 255 259 261 264 267 270 273 276 278 281 284 287 289 291 293 295 297 298 299 300 301 302 302 302 303 304 304 304 304
217 219 221 224 226 227 229 232 234 237 240 244 248 252 256 259 262 264 267 270 273 276 279 282 285 287 289 291 293 295 297 299 300 301 301 302 302 302 303 303 304 304 304 304
217 218 221 225 226 228 231 233 236 240 244 249 252 255 258 261 264 267 270 273 277 279 282 285 287 290 292 294 296 298 299 300 301 302 302 302 303 303 303 304 304 304 303 303
Height
5574 5582 5587 5592 5599 5604 5608 5615 5622 5630 5636 5643 5645 5647 5649 5652 5655 5658 5660 5662 5664 5666 5668 5669 5671 5672 5674 5675 5676 5677 5678 5678 5679 5679 5679 5679 5679 5679 5678 5677 5676 5674 5672 5670
5562 5570 5574 5579 5586 5592 5599 5606 5612 5619 5625 5634 5636 5637 5639 5642 5646 5649 5651 5653 5655 5657 5659 5660 5662 5663 5665 5666 5667 5667 5668 5669 5670 5670 5670 5670 5670 5669 5668 5667 5666 5664 5663 5660
5551 5559 5561 5566 5578 5585 5591 5598 5604 5609 5620 5624 5625 5628 5631 5634 5636 5639 5642 5644 5646 5648 5650 5651 5653 5654 5655 5656 5657 5658 5659 5660 5660 5661 5661 5661 5660 5659 5659 5657 5656 5654 5652 5649
5540 5547 5548 5563 5573 5577 5582 5589 5595 5601 5608 5612 5616 5618 5621 5624 5627 5629 5632 5635 5637 5639 5640 5642 5643 5645 5646 5647 5648 5649 5650 5651 5651 5651 5651 5651 5650 5650 5649 5647 5646 5644 5641 5639
5529 5533 5540 5553 5563 5569 5573 5579 5587 5592 5598 5602 5605 5607 5611 5615 5618 5620 5623 5625 5628 5629 5631 5633 5634 5636 5637 5638 5639 5640 5641 5641 5642 5642 5641 5641 5640 5639 5638 5637 5635 5633 5630 5627
5518 5524 5531 5548 5557 5560 5564 5569 5579 5582 5587 5591 5593 5597 5605 5607 5608 5611 5613 5616 5618 5620 5622 5623 5625 5626 5628 5629 5630 5631 5631 5632 5632 5632 5632 5631 5630 5629 5628 5626 5624 5622 5619 5616
5508 5514 5524 5539 5546 5549 5555 5566 5571 5572 5576 5580 5583 5589 5595 5596 5599 5601 5604 5606 5608 5610 5612 5614 5616 5617 5619 5620 5621 5621 5622 5622 5622 5622 5622 5621 5620 5618 5617 5615 5613 5611 5608 5605
5500 5506 5520 5532 5535 5540 5548 5555 5559 5562 5566 5570 5575 5579 5582 5586 5589 5592 5594 5597 5599 5601 5603 5605 5607 5608 5609 5611 5612 5612 5612 5612 5612 5612 5611 5610 5609 5608 5606 5604 5602 5599 5596 5593
5493 5504 5515 5520 5526 5531 5537 5543 5548 5552 5557 5561 5565 5569 5573 5577 5580 5583 5586 5588 5590 5592 5594 5596 5597 5599 5600 5601 5602 5602 5603 5603 5602 5602 5601 5600 5598 5597 5595 5593 5590 5587 5584 5581
5483 5494 5503 5509 5515 5521 5527 5533 5538 5543 5548 5552 5556 5560 5564 5568 5571 5574 5577 5579 5581 5583 5585 5587 5588 5590 5591 5592 5592 5593 5593 5593 5592 5591 5590 5589 5588 5586 5584 5581 5578 5575 5572 5568
5475 5485 5492 5498 5505 5512 5518 5523 5529 5534 5539 5543 5547 5551 5555 5559 5562 5565 5568 5571 5573 5575 5576 5578 5579 5580 5581 5582 5583 5583 5583 5582 5582 5581 5580 5578 5576 5574 5572 5569 5566 5563 5559 5555
5469 5478 5483 5491 5497 5502 5508 5514 5520 5525 5530 5534 5539 5543 5547 5550 5553 5556 5559 5562 5564 5566 5567 5569 5570 5571 5572 5573 5573 5573 5573 5572 5571 5570 5569 5567 5565 5563 5560 5557 5554 5550 5546 5542
5460 5466 5473 5480 5486 5492 5498 5505 5511 5516 5521 5526 5530 5534 5538 5541 5544 5547 5550 5553 5555 5557 5558 5559 5561 5562 5562 5563 5563 5563 5562 5562 5561 5559 5558 5556 5554 5552 5549 5546 5542 5538 5533 5528
5450 5456 5463 5470 5477 5484 5490 5496 5502 5508 5512 5517 5522 5525 5529 5533 5536 5539 5542 5544 5546 5548 5549 5550 5551 5552 5553 5553 5553 5552 5552 5551 5550 5548 5546 5544 5542 5540 5537 5534 5530 5526 5520 5514
5442 5448 5455 5462 5468 5475 5481 5487 5493 5499 5504 5509 5513 5517 5521 5524 5527 5530 5533 5535 5537 5538 5540 5541 5542 5542 5543 5543 5542 5542 5541 5540 5539 5537 5535 5533 5530 5527 5524 5520 5517 5512 5507 5501
5434 5440 5447 5453 5460 5467 5473 5479 5485 5491 5495 5500 5504 5508 5512 5515 5518 5521 5524 5526 5528 5529 5530 5531 5532 5532 5532 5532 5532 5531 5530 5529 5527 5525 5523 5521 5518 5515 5511 5507 5503 5498 5492 5486
5426 5433 5440 5446 5453 5459 5465 5471 5476 5482 5487 5492 5496 5500 5503 5506 5509 5512 5515 5517 5518 5520 5521 5522 5522 5522 5522 5522 5521 5520 5519 5517 5516 5514 5511 5509 5505 5502 5498 5494 5489 5483 5478 5471
5420 5427 5433 5439 5445 5451 5457 5463 5468 5473 5478 5483 5487 5491 5494 5498 5501 5503 5505 5507 5509 5510 5511 5512 5512 5512 5512 5511 5510 5509 5508 5506 5504 5502 5499 5496 5492 5488 5484 5479 5474 5469 5463 5456
5414 5421 5427 5433 5439 5444 5450 5455 5461 5466 5470 5475 5479 5482 5486 5489 5491 5494 5496 5498 5499 5501 5501 5502 5502 5502 5501 5500 5499 5498 5496 5494 5492 5489 5486 5483 5479 5475 5470 5465 5459 5454 5447 5441
5409 5415 5421 5427 5433 5438 5443 5449 5454 5458 5463 5467 5470 5474 5477 5480 5483 5485 5487 5489 5490 5491 5491 5492 5492 5491 5491 5489 5488 5486 5484 5482 5479 5476 5473 5469 5465 5461 5455 5450 5444 5438 5432 5425
5404 5410 5416 5422 5427 5432 5437 5442 5446 5451 5455 5459 5462 5466 5469 5471 5474 5476 5478 5479 5480 5481 5481 5481 5481 5481 5480 5478 5477 5475 5472 5469 5466 5463 5459 5455 5451 5446 5440 5435 5428 5422 5415 5409
5400 5406 5411 5417 5422 5426 5431 5436 5440 5444 5447 5451 5455 5458 5460 5463 5465 5467 5469 5470 5471 5471 5471 5471 5471 5470 5469 5467 5465 5462 5460 5456 5453 5449 5445 5440 5436 5431 5425 5419 5412 5406 5399 5393
5395 5401 5406 5411 5416 5421 5425 5429 5433 5437 5440 5444 5447 5449 5452 5454 5456 5458 5459 5460 5461 5461 5461 5461 5460 5459 5457 5455 5453 5450 5447 5444 5440 5435 5431 5426 5421 5415 5409 5403 5396 5390 5383 5377
5391 5396 5401 5406 5411 5415 5419 5423 5426 5430 5433 5436 5439 5441 5444 5446 5447 5449 5450 5450 5451 5451 5450 5450 5449 5447 5445 5443 5440 5437 5434 5430 5426 5421 5416 5411 5405 5399 5393 5387 5380 5374 5368 5361
5387 5392 5396 5401 5405 5409 5413 5416 5420 5423 5426 5428 5431 5433 5435 5437 5438 5439 5440 5440 5440 5440 5439 5438 5437 5435 5433 5431 5428 5424 5420 5416 5411 5406 5401 5395 5389 5383 5376 5370 5364 5358 5352 5346
5383 5387 5392 5396 5400 5403 5407 5410 5413 5416 5419 5421 5423 5425 5427 5428 5429 5430 5430 5430 5430 5429 5428 5427 5425 5423 5421 5418 5414 5410 5406 5401 5396 5390 5385 5379 5373 5367 5361 5355 5349 5342 5336 5330
5379 5383 5387 5390 5394 5397 5400 5404 5406 5409 5411 5414 5415 5417 5418 5419 5420 5421 5421 5420 5420 5419 5417 5415 5413 5411 5408 5404 5400 5396 5391 5386 5381 5375 5369 5363 5357 5351 5345 5339 5333 5327 5321 5315